sat.trackr.live / text

‹ back to catalog

STARLINK-5286

NORAD 55294 · 2023-010AB

PAYLOAD ACTIVE UNKNOWN

§ Identity

Operator
Country
US
Launch date
2023-01-19
Launch site
AFWTR
Launch vehicle
Mass (kg)
RCS (m²)

Purposes: comms

External: N2YO · Heavens-Above · Gunter

§ Orbital elements

Epoch: 2026-05-25T03:52:46.546176Z

Period
96.11 min
Inclination
69.9991°
Eccentricity
0.0003459
Mean motion
14.98329681 rev/d
Perigee alt
569.7 km
Apogee alt
574.5 km
Semi-major
6,950.2 km
B*
-1.9082e-5
RAAN
211.5171°
Arg perigee
268.7359°
Mean anomaly
91.3404°
Rev number
18,423

§ Raw data

STARLINK-52861 55294U 23010AB  26145.16164984 -.00000321  00000+0 -19082-4 0  99992 55294  69.9991 211.5171 0003459 268.7359  91.3404 14.98329681184239

JSON: /api/v1/satellites/55294 · /tle

For live sub-satellite position, see the globe view (requires WebGL).

§ Visibility from observer

Set your observer location to see the next 7 days of passes ≥ 10°. The values pass through the URL so the page stays shareable.

No JS? Fill the form by hand. The geolocation button needs JavaScript.